This is the latest recevied weather packets stored in our database for station/object F4GSP-4. If no packets are shown the sender has not sent any weather packets the latest 10 day(s).
| Time | Temp. | Humidity | Pressure | Rain* | Wind** | Luminosity | Snow |
|---|---|---|---|---|---|---|---|
| 1778232222 | 18.33° C | 54% | 1025.2 hPa | - | - | - | - |
| 1778231322 | 17.78° C | 54% | 1025.2 hPa | - | - | - | - |
| 1778230421 | 17.22° C | 54% | 1025.2 hPa | - | - | - | - |
| 1778229521 | 16.67° C | 55% | 1025.3 hPa | - | - | - | - |
| 1778228621 | 15.56° C | 55% | 1025.3 hPa | - | - | - | - |
| 1778227721 | 14.44° C | 56% | 1025.4 hPa | - | - | - | - |
| 1778226821 | 12.78° C | 56% | 1025.4 hPa | - | - | - | - |
| 1778225921 | 11.67° C | 56% | 1025.5 hPa | - | - | - | - |
| 1778225020 | 10.56° C | 56% | 1025.6 hPa | - | - | - | - |
| 1778224120 | 10° C | 56% | 1025.6 hPa | - | - | - | - |
| 1778223220 | 9.44° C | 56% | 1025.5 hPa | - | - | - | - |
| 1778222320 | 8.33° C | 56% | 1025.5 hPa | - | - | - | - |
| 1778221420 | 7.78° C | 56% | 1025.4 hPa | - | - | - | - |
| 1778220520 | 6.67° C | 56% | 1025.4 hPa | - | - | - | - |
| 1778219619 | 6.11° C | 56% | 1025.3 hPa | - | - | - | - |
| 1778218719 | 5.56° C | 56% | 1025.3 hPa | - | - | - | - |
| 1778217819 | 4.44° C | 55% | 1025.3 hPa | - | - | - | - |
| 1778216919 | 3.89° C | 55% | 1025.3 hPa | - | - | - | - |
| 1778216019 | 3.33° C | 55% | 1025.1 hPa | - | - | - | - |
| 1778215119 | 3.33° C | 54% | 1025.1 hPa | - | - | - | - |
| 1778214218 | 3.33° C | 54% | 1025.2 hPa | - | - | - | - |
| 1778213318 | 3.33° C | 54% | 1025.2 hPa | - | - | - | - |
| 1778212417 | 3.33° C | 54% | 1025.2 hPa | - | - | - | - |
| 1778211517 | 3.33° C | 54% | 1025.1 hPa | - | - | - | - |
| 1778210617 | 3.89° C | 54% | 1025.2 hPa | - | - | - | - |
* Rain since midnight (hover to see other rain measurements)
** Current wind speed in m/s (hover to see current wind gust speed)